Location: Radomski Observatory
(40.2854°N, 79.5145°W)
Time: 16:29:37
(UTC-04:00)

Amateur Radio Satellites - All Passes

Search period start: 30 April 2017 15:59
Search period end: 01 May 2017 15:59
Location: Radomski Observatory, 40.2854°N, 79.5145°W

Satellite Date Start Highest point End Downlink Frequencies (MHz)
Time Altitude Azimuth
RS-15 30 Apr 16:05:51 16:18:09 70° 54° (NE) 16:29:48 29.354- 29.394
MOZHAYETS 4 30 Apr 16:06:57 16:10:58 29° 96° (E) 16:14:59
SO-50 30 Apr 16:22:38 16:25:22 16° 251° (WSW) 16:28:07 436.795
BEESAT 30 Apr 16:51:28 16:56:04 49° 288° (WNW) 17:00:39 436.000
ITAMSAT 1 30 Apr 16:52:12 16:56:22 25° 265° (W) 17:00:35 435.822/435.867
CUBESAT XI-V 30 Apr 17:09:44 17:13:31 23° 94° (E) 17:17:16 437.345
KKS-1 30 Apr 17:24:21 17:28:18 31° 97° (E) 17:32:13 437.445
ITUPSAT 1 30 Apr 17:36:00 17:39:25 20° 295° (WNW) 17:42:49 437.325
YUBILEINY 30 Apr 17:42:05 17:48:36 24° 279° (W) 17:55:08 435.215
AO-7 30 Apr 17:42:48 17:48:33 20° 268° (W) 17:54:22 .
STARS 30 Apr 17:44:07 17:47:29 22° 95° (E) 17:50:51 437.465
MOZHAYETS 4 30 Apr 17:44:08 17:48:01 27° 292° (WNW) 17:51:55
NO-84 30 Apr 17:58:38 18:01:55 25° 129° (SE) 18:04:59 435.350 FM
DOVE 4 30 Apr 18:03:43 18:08:54 57° 73° (ENE) 18:13:56 437.250
HO-68 30 Apr 18:05:51 18:09:48 16° 53° (NE) 18:13:46 435.675
XW-2D 30 Apr 18:13:19 18:16:47 38° 73° (ENE) 18:20:17 145.860 - 145.880
RS-15 30 Apr 18:19:23 18:29:40 35° 256° (WSW) 18:39:34 29.354- 29.394
KAITUO 1B 30 Apr 18:19:24 18:22:44 34° 72° (ENE) 18:26:07 145.475/437.950
XW-2B 30 Apr 18:20:17 18:23:50 44° 74° (ENE) 18:27:26 145.730 - 145.750
CUTE-I 30 Apr 18:30:08 18:35:23 61° 72° (ENE) 18:40:38 437.470
XW-2C 30 Apr 18:32:15 18:35:57 66° 76° (ENE) 18:39:41 145.795 - 145.815
LilacSat-2 30 Apr 18:36:17 18:40:02 79° 75° (ENE) 18:43:49 437.200
CUBESAT XI-V 30 Apr 18:46:40 18:50:56 34° 290° (WNW) 18:55:10 437.345
NUDT-PHONESAT 30 Apr 18:52:12 18:55:52 87° 253° (WSW) 18:59:34 437.300
XW-2F 30 Apr 18:54:23 18:58:04 65° 259° (WSW) 19:01:49 145.980 - 146.000
O/OREOS (USA 219) 30 Apr 18:59:46 19:03:07 20° 56° (ENE) 19:06:26 437.305
KKS-1 30 Apr 19:01:10 19:04:41 24° 293° (WNW) 19:08:12 437.445
CUTE 1.7 + AOD 2 30 Apr 19:17:20 19:20:56 28° 70° (ENE) 19:24:34 437.475
STARS 30 Apr 19:19:59 19:23:51 32° 291° (WNW) 19:27:44 437.465
XW-2A 30 Apr 19:25:39 19:28:37 30° 72° (ENE) 19:31:35 145.665 - 145.685
SEEDS 30 Apr 19:28:55 19:32:19 24° 69° (ENE) 19:35:45 437.485
STRAND 1 30 Apr 19:32:41 19:35:30 15° 91° (E) 19:38:18 437.568
CUBEBUG 2 30 Apr 19:33:58 19:37:07 20° 68° (ENE) 19:40:14 437.445
NO-84 30 Apr 19:35:51 19:39:22 36° 323° (NW) 19:42:37 435.350 FM
DOVE 4 30 Apr 19:43:24 19:46:50 17° 269° (W) 19:50:13 437.250
HO-68 30 Apr 19:49:16 19:56:25 80° 71° (ENE) 20:03:37 435.675
XW-2D 30 Apr 19:49:18 19:51:09 13° 268° (W) 19:53:01 145.860 - 145.880
KAITUO 1B 30 Apr 19:54:49 19:56:52 14° 268° (W) 19:58:56 145.475/437.950
XW-2B 30 Apr 19:57:04 19:58:16 11° 269° (W) 19:59:28 145.730 - 145.750
ZACube-1 30 Apr 19:58:01 19:59:46 12° 64° (ENE) 20:01:32 437.345
AO-73 30 Apr 20:02:10 20:03:55 12° 64° (ENE) 20:05:39 145.935
Oscar 11 30 Apr 20:11:36 20:13:52 14° 64° (ENE) 20:16:08 .
CUTE-I 30 Apr 20:12:31 20:15:49 16° 269° (W) 20:19:06 437.470
AO-85 30 Apr 20:20:44 20:24:11 27° 50° (NE) 20:27:44 145.980
AAUSAT CUBESAT 2 30 Apr 20:22:32 20:26:30 46° 73° (ENE) 20:30:31 437.432
M-CUBED/EXP-1 PRIME 30 Apr 20:28:13 20:31:34 25° 100° (E) 20:34:41 437.505
O/OREOS (USA 219) 30 Apr 20:38:24 20:42:44 42° 254° (WSW) 20:46:59 437.305
UWE-3 30 Apr 20:46:19 20:50:33 79° 75° (ENE) 20:54:42 435.000/436.395/437.385
CUTE 1.7 + AOD 2 30 Apr 20:53:21 20:56:44 23° 266° (W) 21:00:09 437.475
XW-2A 30 Apr 20:59:53 21:01:28 13° 267° (W) 21:03:03 145.665 - 145.685
SEEDS 30 Apr 21:04:21 21:07:54 27° 265° (W) 21:11:30 437.485
CUBEBUG 2 30 Apr 21:09:39 21:13:33 33° 263° (W) 21:17:23 437.445
STRAND 1 30 Apr 21:10:02 21:15:05 63° 287° (WNW) 21:20:07 437.568
BEESAT 3 30 Apr 21:25:07 21:28:32 26° 49° (NE) 21:31:56 437.485
ZACube-1 30 Apr 21:31:30 21:35:35 55° 260° (W) 21:39:39 437.345
OBJECT BX 30 Apr 21:34:35 21:37:21 21° 69° (ENE) 21:40:07 145.990 - 145.960
BEESAT 2 30 Apr 21:35:06 21:37:29 15° 43° (NE) 21:39:52 435.950
AO-73 30 Apr 21:35:36 21:39:40 54° 260° (W) 21:43:44 145.935
HO-68 30 Apr 21:40:20 21:44:51 18° 269° (W) 21:49:25 435.675
Oscar 11 30 Apr 21:45:21 21:49:32 52° 260° (W) 21:53:46 .
AAUSAT CUBESAT 2 30 Apr 22:00:04 22:02:12 14° 269° (W) 22:04:21 437.432
DELFI C3 30 Apr 22:00:16 22:04:11 63° 76° (ENE) 22:08:10 145.870
AO-85 30 Apr 22:01:06 22:04:29 26° 246° (WSW) 22:08:00 145.980
M-CUBED/EXP-1 PRIME 30 Apr 22:02:40 22:05:54 23° 298° (WNW) 22:08:56 437.505
PRISM 30 Apr 22:08:01 22:10:38 16° 93° (E) 22:13:13 437.425
FO-29 30 Apr 22:08:31 22:09:16 10° 90° (E) 22:10:02 435.910
LO-87 30 Apr 22:24:51 22:26:00 11° 65° (ENE) 22:27:09 145.935 - 145.965
UNISAT 6 30 Apr 22:29:04 22:32:11 19° 94° (E) 22:35:20 437.425
BEESAT 3 30 Apr 23:02:38 23:06:06 28° 246° (WSW) 23:09:31 437.485
OBJECT BX 30 Apr 23:08:00 23:10:55 23° 265° (W) 23:13:51 145.990 - 145.960
BEESAT 2 30 Apr 23:11:37 23:15:39 63° 241° (WSW) 23:19:37 435.950
TIGRISAT 30 Apr 23:42:04 23:46:22 70° 284° (WNW) 23:50:42 435.000
PRISM 30 Apr 23:42:12 23:46:03 38° 289° (WNW) 23:49:52 437.425
VELOX 1 30 Apr 23:45:34 23:48:35 18° 65° (ENE) 23:51:36 145.980
FO-29 30 Apr 23:49:36 23:54:55 87° 281° (WNW) 00:00:41 435.910
ESTCUBE 1 30 Apr 23:51:13 23:55:42 72° 76° (ENE) 00:00:14 437.505/2401.250
AIST 2D 30 Apr 23:53:25 23:55:59 19° 94° (E) 23:58:33 435.315
LO-87 30 Apr 23:55:32 23:59:01 46° 261° (W) 00:02:32 145.935 - 145.965
50 SAT 01 May 00:01:29 00:02:15 11° 65° (ENE) 00:03:01 437.505
UNISAT 6 01 May 00:05:02 00:08:59 36° 289° (WNW) 00:12:58 437.425
SPROUT 01 May 00:11:40 00:15:23 30° 70° (ENE) 00:19:05 437.525
DUCHIFAT 1 01 May 00:13:07 00:15:27 15° 92° (E) 00:17:46 145.980
EO-79 01 May 00:16:10 00:19:15 20° 94° (E) 00:22:19 145.935-145.965
DX 1 01 May 00:22:12 00:25:00 17° 65° (ENE) 00:27:50 434.975-435.025
NO-84 01 May 00:33:40 00:35:27 14° 26° (NNE) 00:37:11 435.350 FM
PCSat 01 May 00:44:37 00:47:54 17° 104° (ESE) 00:51:13 145.827
POLYITAN 1 01 May 00:56:03 01:00:12 57° 101° (E) 01:04:21 437.675
BUGSAT 1 01 May 00:56:09 00:58:03 13° 92° (E) 00:59:56 437.445
QB50P2 01 May 01:02:54 01:07:07 76° 102° (ESE) 01:11:20 145.880/145.840
UKube-1 01 May 01:13:59 01:18:02 41° 71° (ENE) 01:22:06 .
NANOSAT C BR1 01 May 01:20:00 01:24:12 82° 284° (WNW) 01:28:23 145.865
VELOX 1 01 May 01:20:27 01:24:41 43° 261° (W) 01:28:57 145.980
AIST 2D 01 May 01:26:17 01:29:09 24° 289° (WNW) 01:32:02 435.315
50 SAT 01 May 01:31:23 01:34:44 45° 261° (W) 01:38:07 437.505
ESTCUBE 1 01 May 01:32:38 01:32:59 10° 271° (W) 01:33:20 437.505/2401.250
FO-29 01 May 01:37:59 01:39:19 11° 301° (WNW) 01:40:40 435.910
DUCHIFAT 1 01 May 01:47:21 01:51:20 44° 287° (WNW) 01:55:17 145.980
SPROUT 01 May 01:47:54 01:51:16 22° 265° (W) 01:54:39 437.525
Oscar 19 01 May 01:49:33 01:53:22 20° 93° (E) 01:57:09 437.125/150
EO-79 01 May 01:51:18 01:55:04 33° 289° (WNW) 01:58:49 145.935-145.965
DX 1 01 May 01:56:38 02:00:50 45° 261° (W) 02:05:03 434.975-435.025
NO-84 01 May 02:10:22 02:13:16 61° 226° (SW) 02:16:04 435.350 FM
BEESAT 01 May 02:20:58 02:24:19 19° 64° (ENE) 02:27:40 436.000
PCSat 01 May 02:25:19 02:30:41 66° 301° (WNW) 02:36:07 145.827
Gurwin Techsat 1B 01 May 02:28:51 02:33:25 28° 96° (E) 02:37:56 435.225
BUGSAT 1 01 May 02:29:48 02:33:38 45° 287° (WNW) 02:37:28 437.445
POLYITAN 1 01 May 02:33:40 02:35:30 13° 296° (WNW) 02:37:19 437.675
UKube-1 01 May 02:51:23 02:54:13 17° 267° (W) 02:57:04 .
YUBILEINY 01 May 02:52:48 02:57:03 15° 76° (ENE) 03:01:18 435.215
ITUPSAT 1 01 May 03:03:24 03:07:58 49° 72° (ENE) 03:12:34 437.325
MOZHAYETS 4 01 May 03:08:27 03:12:12 26° 68° (ENE) 03:16:00
ITAMSAT 1 01 May 03:26:50 03:29:26 14° 91° (E) 03:32:01 435.822/435.867
Oscar 19 01 May 03:27:55 03:32:53 47° 289° (WNW) 03:37:51 437.125/150
AO-7 01 May 03:49:42 03:56:29 27° 95° (E) 04:03:13 .
BEESAT 01 May 03:57:12 04:01:44 45° 261° (W) 04:06:18 436.000
Gurwin Techsat 1B 01 May 04:08:34 04:13:22 35° 292° (WNW) 04:18:09 435.225
CUBESAT XI-V 01 May 04:12:41 04:16:16 22° 66° (ENE) 04:19:51 437.345
PCSat 01 May 04:12:59 04:15:10 12° 321° (NW) 04:17:22 145.827
KKS-1 01 May 04:21:51 04:25:39 28° 68° (ENE) 04:29:28 437.445
STARS 01 May 04:40:28 04:43:36 19° 66° (ENE) 04:46:44 437.465
ITUPSAT 1 01 May 04:43:03 04:46:03 17° 268° (W) 04:49:05 437.325
YUBILEINY 01 May 04:43:40 04:52:21 82° 95° (E) 05:01:05 435.215
MOZHAYETS 4 01 May 04:45:18 04:49:15 29° 264° (W) 04:53:14
SO-50 01 May 04:55:44 04:59:00 19° 111° (ESE) 05:02:14 436.795
ITAMSAT 1 01 May 05:04:12 05:09:22 68° 287° (WNW) 05:14:30 435.822/435.867
AO-7 01 May 05:41:32 05:49:45 66° 293° (WNW) 05:57:58 .
CUBESAT XI-V 01 May 05:49:05 05:53:23 37° 263° (W) 05:57:43 437.345
KKS-1 01 May 05:58:22 06:02:08 26° 264° (W) 06:05:55 437.445
ISS 01 May 06:03:27 06:04:37 12° 129° (SE) 06:05:48 437.550
DOVE 4 01 May 06:05:19 06:07:34 14° 89° (E) 06:09:46 437.250
STARS 01 May 06:15:33 06:19:40 38° 261° (W) 06:23:47 437.465
RS-15 01 May 06:27:44 06:38:50 47° 108° (ESE) 06:50:15 29.354- 29.394
XW-2F 01 May 06:28:28 06:30:17 13° 92° (E) 06:32:07 145.980 - 146.000
SO-50 01 May 06:34:40 06:39:07 47° 307° (NW) 06:43:33 436.795
Tancredo 1 01 May 06:37:08 06:39:58 33° 136° (SE) 06:42:48 437.200
YUBILEINY 01 May 06:44:02 06:50:12 21° 296° (WNW) 06:56:26 435.215
STRAND 1 01 May 06:47:48 06:51:35 21° 64° (ENE) 06:55:22 437.568
CUTE-I 01 May 06:48:14 06:52:33 25° 95° (E) 06:56:50 437.470
M-CUBED/EXP-1 PRIME 01 May 07:12:10 07:16:25 36° 65° (ENE) 07:20:40 437.505
HO-68 01 May 07:19:53 07:23:39 15° 89° (E) 07:27:24 435.675
XW-2D 01 May 07:19:55 07:23:44 63° 101° (E) 07:27:31 145.860 - 145.880
KAITUO 1B 01 May 07:24:26 07:28:10 53° 99° (E) 07:31:52 145.475/437.950
XW-2B 01 May 07:26:59 07:30:49 75° 102° (ESE) 07:34:38 145.730 - 145.750
AO-7 01 May 07:36:45 07:40:57 15° 313° (NW) 07:45:10 .
ISS 01 May 07:37:26 07:40:41 73° 323° (NW) 07:43:57 437.550
XW-2C 01 May 07:39:10 07:43:00 75° 284° (WNW) 07:46:49 145.795 - 145.815
DOVE 4 01 May 07:41:18 07:45:39 49° 287° (WNW) 07:49:45 437.250
LilacSat-2 01 May 07:43:58 07:47:47 62° 285° (WNW) 07:51:36 437.200
NUDT-PHONESAT 01 May 07:56:49 08:00:29 56° 285° (WNW) 08:04:09 437.300
XW-2F 01 May 08:01:00 08:04:35 40° 287° (WNW) 08:08:12 145.980 - 146.000
Tancredo 1 01 May 08:13:10 08:15:52 27° 333° (NNW) 08:18:35 437.200
XW-2A 01 May 08:20:15 08:23:21 34° 98° (E) 08:26:26 145.665 - 145.685
STRAND 1 01 May 08:25:33 08:30:26 46° 261° (W) 08:35:20 437.568
CUTE-I 01 May 08:27:46 08:32:42 40° 291° (WNW) 08:37:37 437.470
UWE-3 01 May 08:37:11 08:39:48 16° 93° (E) 08:42:27 435.000/436.395/437.385
CUTE 1.7 + AOD 2 01 May 08:37:31 08:41:47 60° 100° (E) 08:46:01 437.475
RS-15 01 May 08:39:14 08:51:06 57° 311° (NW) 09:03:18 29.354- 29.394
M-CUBED/EXP-1 PRIME 01 May 08:47:02 08:50:49 25° 260° (W) 08:54:39 437.505
SEEDS 01 May 08:47:44 08:51:53 50° 99° (E) 08:56:01 437.485
PRISM 01 May 08:57:56 08:59:32 12° 63° (ENE) 09:01:09 437.425
CUBEBUG 2 01 May 09:00:04 09:04:08 47° 99° (E) 09:08:17 437.445
KAITUO 1B 01 May 09:00:44 09:01:42 11° 295° (WNW) 09:02:40 145.475/437.950
HO-68 01 May 09:05:00 09:12:15 88° 104° (ESE) 09:19:28 435.675
O/OREOS (USA 219) 01 May 09:11:33 09:15:08 23° 102° (ESE) 09:18:45 437.305
ISS 01 May 09:15:25 09:17:38 17° 343° (NNW) 09:19:50 437.550
ZACube-1 01 May 09:20:07 09:23:46 27° 96° (E) 09:27:29 437.345
AO-73 01 May 09:23:52 09:27:32 27° 96° (E) 09:31:14 145.935
UNISAT 6 01 May 09:28:04 09:30:47 17° 65° (ENE) 09:33:28 437.425
PCSat 01 May 09:31:41 09:34:55 16° 42° (NE) 09:38:07 145.827
Oscar 11 01 May 09:33:09 09:36:55 28° 96° (E) 09:40:41 .
AAUSAT CUBESAT 2 01 May 09:40:07 09:44:20 85° 283° (WNW) 09:48:30 437.432
Tancredo 1 01 May 09:51:35 09:52:33 11° 353° (N) 09:53:32 437.200
XW-2A 01 May 09:54:20 09:55:46 12° 293° (WNW) 09:57:12 145.665 - 145.685
FO-29 01 May 10:01:42 10:07:10 37° 69° (ENE) 10:12:08 435.910
UWE-3 01 May 10:12:26 10:16:26 42° 287° (WNW) 10:20:30 435.000/436.395/437.385
CUTE 1.7 + AOD 2 01 May 10:15:15 10:17:05 13° 296° (WNW) 10:18:54 437.475
SEEDS 01 May 10:24:49 10:27:09 15° 295° (WNW) 10:29:28 437.485
PRISM 01 May 10:30:11 10:34:17 60° 259° (W) 10:38:26 437.425
OBJECT BX 01 May 10:36:40 10:39:53 28° 97° (E) 10:43:05 145.990 - 145.960
CUBEBUG 2 01 May 10:38:03 10:40:22 15° 295° (WNW) 10:42:43 437.445
TIGRISAT 01 May 10:39:54 10:44:14 87° 251° (WSW) 10:48:32 435.000
O/OREOS (USA 219) 01 May 10:50:09 10:54:20 34° 298° (WNW) 10:58:33 437.305
ISS 01 May 10:53:59 10:55:10 11° 3° (N) 10:56:22 437.550
HO-68 01 May 10:54:25 10:59:02 19° 305° (NW) 11:03:40 435.675
ZACube-1 01 May 10:56:27 10:59:57 25° 291° (WNW) 11:03:30 437.345
RS-15 01 May 10:57:41 11:07:12 25° 342° (NNW) 11:16:46 29.354- 29.394
AO-73 01 May 11:00:10 11:03:39 25° 291° (WNW) 11:07:13 145.935
UNISAT 6 01 May 11:03:00 11:07:09 43° 261° (W) 11:11:15 437.425
DUCHIFAT 1 01 May 11:05:58 11:07:02 11° 63° (ENE) 11:08:05 145.980
EO-79 01 May 11:08:52 11:11:13 15° 65° (ENE) 11:13:33 145.935-145.965
Oscar 11 01 May 11:09:23 11:12:56 25° 291° (WNW) 11:16:28 .
DELFI C3 01 May 11:12:20 11:16:20 72° 283° (WNW) 11:20:17 145.870
PCSat 01 May 11:13:38 11:19:06 88° 61° (ENE) 11:24:32 145.827
LO-87 01 May 11:24:20 11:26:05 13° 92° (E) 11:27:50 145.935 - 145.965
Tancredo 1 01 May 11:27:58 11:29:30 13° 13° (NNE) 11:31:02 437.200
ESTCUBE 1 01 May 11:45:24 11:48:11 16° 92° (E) 11:50:58 437.505/2401.250
FO-29 01 May 11:47:01 11:52:16 29° 263° (W) 11:57:06 435.910
POLYITAN 1 01 May 11:47:55 11:51:50 39° 71° (ENE) 11:55:44 437.675
QB50P2 01 May 11:54:38 11:58:43 50° 73° (ENE) 12:02:48 145.880/145.840
AIST 2D 01 May 11:59:13 12:02:40 75° 259° (W) 12:06:09 435.315
OBJECT BX 01 May 12:10:51 12:13:21 18° 292° (WNW) 12:15:51 145.990 - 145.960
NANOSAT C BR1 01 May 12:11:05 12:15:15 66° 74° (ENE) 12:19:24 145.865
AO-85 01 May 12:14:14 12:18:32 78° 302° (WNW) 12:22:36 145.980
ISS 01 May 12:29:57 12:32:35 22° 23° (NNE) 12:35:14 437.550
DUCHIFAT 1 01 May 12:37:58 12:42:07 67° 258° (WSW) 12:46:17 145.980
EO-79 01 May 12:42:30 12:46:34 47° 260° (W) 12:50:39 145.935-145.965
BEESAT 3 01 May 12:51:05 12:54:52 49° 117° (ESE) 12:58:44 437.485
LO-87 01 May 12:56:25 12:59:39 33° 288° (WNW) 13:02:52 145.935 - 145.965
50 SAT 01 May 12:57:23 12:58:10 11° 92° (E) 12:58:57 437.505
PCSat 01 May 12:59:56 13:01:40 11° 258° (WSW) 13:03:24 145.827
BEESAT 2 01 May 13:02:48 13:05:59 24° 113° (ESE) 13:09:12 435.950
Tancredo 1 01 May 13:03:00 13:05:59 44° 32° (NNE) 13:08:58 437.200
Oscar 19 01 May 13:05:42 13:10:04 29° 67° (ENE) 13:14:29 437.125/150
VELOX 1 01 May 13:10:51 13:14:54 35° 98° (E) 13:18:55 145.980
RS-15 01 May 13:16:13 13:25:44 24° 18° (NNE) 13:35:03 29.354- 29.394
BUGSAT 1 01 May 13:18:16 13:22:23 74° 258° (WSW) 13:26:29 437.445
ESTCUBE 1 01 May 13:20:52 13:25:14 47° 288° (WNW) 13:29:34 437.505/2401.250
POLYITAN 1 01 May 13:25:03 13:27:45 17° 267° (W) 13:30:28 437.675
SO-50 01 May 13:26:43 13:29:50 18° 43° (NE) 13:32:56 436.795
SPROUT 01 May 13:32:51 13:37:03 61° 101° (E) 13:41:14 437.525
QB50P2 01 May 13:32:51 13:34:47 13° 269° (W) 13:36:42 145.880/145.840
DX 1 01 May 13:45:19 13:49:10 30° 97° (E) 13:53:00 434.975-435.025
Gurwin Techsat 1B 01 May 13:49:15 13:54:14 43° 70° (ENE) 13:59:15 435.225
ISS 01 May 14:06:05 14:09:17 57° 221° (SW) 14:12:29 437.550
50 SAT 01 May 14:28:01 14:31:17 39° 287° (WNW) 14:34:32 437.505
BEESAT 3 01 May 14:30:04 14:32:44 17° 315° (NW) 14:35:25 437.485
UKube-1 01 May 14:36:56 14:41:16 81° 104° (ESE) 14:45:34 .
Tancredo 1 01 May 14:39:29 14:41:39 18° 228° (SW) 14:43:48 437.200
BEESAT 2 01 May 14:40:05 14:43:36 30° 310° (NW) 14:47:11 435.950
ITAMSAT 1 01 May 14:43:49 14:47:43 22° 64° (ENE) 14:51:37 435.822/435.867
Oscar 19 01 May 14:44:36 14:49:15 34° 263° (W) 14:53:58 437.125/150
VELOX 1 01 May 14:47:48 14:51:07 21° 294° (WNW) 14:54:25 145.980
AO-7 01 May 14:48:08 14:55:31 37° 60° (ENE) 15:02:53 .
YUBILEINY 01 May 14:54:43 15:02:49 40° 73° (ENE) 15:10:55 435.215
ITUPSAT 1 01 May 15:06:05 15:08:16 13° 91° (E) 15:10:27 437.325
SO-50 01 May 15:06:14 15:10:41 61° 241° (WSW) 15:15:07 436.795
SPROUT 01 May 15:10:46 15:12:26 12° 297° (WNW) 15:14:06 437.525
DX 1 01 May 15:21:44 15:25:11 23° 293° (WNW) 15:28:37 434.975-435.025
RS-15 01 May 15:29:46 15:41:51 57° 49° (NE) 15:53:19 29.354- 29.394
Gurwin Techsat 1B 01 May 15:30:10 15:34:21 23° 266° (W) 15:38:31 435.225
